Location: Csohesd
(46.2500°N, 22.6167°E)
Time: 13:39:52
(UTC+00:00)

SL-8 R/B - Pass Details

Date: 21 October 2021
Orbit: 656 x 667 km, 48.4° (Epoch: 07 December)

Event Time Altitude Azimuth Distance (km) Brightness Sun altitude
Rises 16:16:37 0° 236° (SW) 2,974 8.3 -8.3°
Reaches altitude 10° 16:18:58 10° 233° (SW) 2,066 7.3 -8.7°
Maximum altitude 16:23:40 61° 154° (SSE) 748 3.9 -9.5°
Enters shadow 16:27:49 13° 75° (ENE) 1,861 5.4 -10.2°
